Location: Rowland
(34.5359°N, 79.2929°W)
Time: 19:39:18
(UTC+00:00)

Transit 2A Rocket - Pass Details

Date: 09 October 2022
Orbit: 589 x 911 km, 66.7° (Epoch: 03 December)

Event Time Altitude Azimuth Distance (km) Brightness Sun altitude
Rises 18:13:59 0° 338° (NNW) 3,069 7.8 45.8°
Reaches altitude 10° 18:16:17 10° 342° (NNW) 2,197 7.2 45.6°
Maximum altitude 18:21:14 57° 62° (ENE) 895 5.7 45.2°
Drops below altitude 10° 18:26:39 10° 141° (SE) 2,400 7.9 44.6°
Sets 18:29:14 0° 145° (SE) 3,377 8.6 44.4°
